Date String (YYYY-MM-DD hh:mm:ss) UTC,Instrument flags,absolute air pressure of the measurement (hPa),sample flow rate (lpm),inlet stack bypass flow (lpm),air temperature of the measurement (°C),ambient temperature measured by the external sensor (°C),aerosol sample conditioner tube jacket temperature (°C),OPC LED temperature (°C),internal box temperature (°C),relative humidity of the measurement (%),span deviation,mass concentration of particles derived from Lorenz-Mie calculation of OPC scattering (μg/m³),mass concentration of particles derived from Lorenz-Mie calculation of OPC scattering (μg/m³),mass concentration of particles derived from Lorenz-Mie calculation of OPC scattering (μg/m³)
DateTimeUTC,F1_M11,P_M11,Q1_M11,Q2_M11,T1_M11,T2_M11,T3_M11,T4_M11,T5_M11,U1_M11,ZSPAN_M11,X2_M11,X0_M11,X1_M11
2023-06-29 15:00:00,SystemResetWarning,0833.7,5.00,000.00,029.5,028.0,000.0,038.1,031.2,33.9,-001.6,0005.72,0015.64,0004.57
2023-06-29 15:01:00,SystemResetWarning,0833.6,5.00,000.00,029.6,028.2,000.0,038.1,031.2,34.3,-002.1,0005.77,0015.98,0004.62
2023-06-29 15:02:00,SystemResetWarning,0833.6,4.98,000.00,029.6,028.3,000.0,038.1,031.2,35.0,-002.5,0005.84,0016.43,0004.66
2023-06-29 15:03:00,SystemResetWarning,0833.6,5.02,000.00,029.7,028.3,000.0,038.1,031.3,34.6,-002.3,0005.92,0016.54,0004.71
2023-06-29 15:04:00,SystemResetWarning,0833.6,4.98,000.00,029.8,028.4,000.0,038.2,031.4,33.8,-000.5,0005.93,0016.61,0004.75
2023-06-29 15:05:00,SystemResetWarning,0833.6,5.00,000.00,029.9,028.5,000.0,038.2,031.4,33.7,0000.0,0005.96,0015.90,0004.80
2023-06-29 15:06:00,SystemResetWarning,0833.6,5.00,000.00,029.9,028.5,000.0,038.2,031.4,33.7,0000.0,0005.99,0016.06,0004.83
2023-06-29 15:07:00,SystemResetWarning,0833.6,5.01,000.00,030.0,028.6,000.0,038.3,031.4,33.8,0000.0,0006.08,0017.32,0004.86
2023-06-29 15:08:00,SystemResetWarning,0833.5,4.98,000.00,030.0,028.0,000.0,038.2,031.4,33.7,0000.0,0006.10,0017.32,0004.89
2023-06-29 15:09:00,SystemResetWarning,0833.4,4.99,000.00,030.0,026.3,000.0,038.1,031.1,34.1,0000.0,0006.09,0016.71,0004.88
2023-06-29 15:10:00,SystemResetWarning,0833.4,4.99,000.00,029.9,025.3,000.0,038.1,030.9,35.0,0000.0,0006.10,0016.29,0004.89
2023-06-29 15:11:00,SystemResetWarning,0833.4,5.04,000.00,029.9,025.2,000.0,038.0,030.7,34.1,0000.0,0006.11,0015.72,0004.91
2023-06-29 15:12:00,SystemResetWarning,0833.4,4.97,000.00,029.8,025.5,000.0,038.1,030.7,34.2,0000.0,0006.14,0014.90,0004.92
2023-06-29 15:13:00,SystemResetWarning,0833.4,5.02,000.00,029.8,026.0,000.0,038.1,030.7,34.3,-000.2,0006.15,0015.40,0004.96
2023-06-29 15:14:00,SystemResetWarning,0833.4,5.00,000.00,029.8,026.4,000.0,038.1,030.8,34.2,-001.3,0006.13,0014.91,0004.97
2023-06-29 15:15:00,SystemResetWarning,0833.4,4.99,000.00,029.8,026.7,000.0,038.2,030.9,34.7,-001.3,0006.07,0014.29,0004.98
2023-06-29 15:16:00,SystemResetWarning,0833.3,5.00,000.00,029.8,027.1,000.0,038.2,030.9,34.9,-000.9,0006.06,0014.09,0004.99
2023-06-29 15:17:00,SystemResetWarning,0833.4,5.02,000.00,029.9,027.3,000.0,038.2,031.0,34.7,-000.4,0006.11,0014.28,0005.01
2023-06-29 15:18:00,SystemResetWarning,0833.3,4.98,000.00,030.0,027.5,000.0,038.2,031.1,34.6,-002.0,0006.10,0014.00,0005.02
2023-06-29 15:19:00,SystemResetWarning,0833.3,5.03,000.00,030.1,027.7,000.0,038.3,031.1,34.8,-002.3,0006.16,0015.07,0005.03
2023-06-29 15:20:00,SystemResetWarning,0833.2,4.97,000.00,030.2,027.9,000.0,038.3,031.2,34.1,-002.1,0006.17,0016.38,0005.04
2023-06-29 15:21:00,SystemResetWarning,0833.2,5.01,000.00,030.2,028.0,000.0,038.3,031.3,34.0,-002.6,0006.12,0016.77,0005.04
2023-06-29 15:22:00,SystemResetWarning,0833.2,5.01,000.00,030.3,028.1,000.0,038.4,031.3,34.1,-002.4,0006.12,0016.82,0005.04
2023-06-29 15:23:00,SystemResetWarning,0833.2,5.00,000.00,030.3,028.2,000.0,038.4,031.3,33.8,-002.4,0006.16,0016.98,0005.06
2023-06-29 15:24:00,SystemResetWarning,0833.3,4.99,000.00,030.4,028.3,000.0,038.5,031.4,33.2,-003.0,0006.23,0016.06,0005.08
2023-06-29 15:25:00,SystemResetWarning,0833.3,5.00,000.00,030.4,028.4,000.0,038.5,031.4,32.9,-003.2,0006.29,0016.29,0005.11
2023-06-29 15:26:00,SystemResetWarning,0833.2,5.00,000.00,030.4,028.5,000.0,038.6,031.4,32.8,-002.9,0006.38,0016.71,0005.14
2023-06-29 15:27:00,SystemResetWarning,0833.3,5.00,000.00,030.4,028.5,000.0,038.6,031.5,32.7,-002.5,0006.44,0018.16,0005.15
2023-06-29 15:28:00,SystemResetWarning,0833.3,5.00,000.00,030.4,028.6,000.0,038.7,031.5,33.2,-002.5,0006.42,0017.94,0005.14
2023-06-29 15:29:00,SystemResetWarning,0833.3,5.00,000.00,030.5,028.5,000.0,038.7,031.5,34.1,-002.9,0006.41,0017.31,0005.15
2023-06-29 15:30:00,SystemResetWarning,0833.3,4.99,000.00,030.5,027.0,000.0,038.6,031.4,33.4,-002.7,0006.39,0016.51,0005.17
2023-06-29 15:31:00,SystemResetWarning,0833.2,5.00,000.00,030.4,025.5,000.0,038.5,031.1,33.8,-002.3,0006.40,0014.83,0005.20
2023-06-29 15:32:00,SystemResetWarning,0833.2,5.01,000.00,030.3,025.2,000.0,038.4,030.9,34.4,-001.5,0006.46,0014.58,0005.23
2023-06-29 15:33:00,SystemResetWarning,0833.2,5.01,000.00,030.1,025.5,000.0,038.4,030.7,34.0,-001.3,0006.54,0014.89,0005.27
2023-06-29 15:34:00,SystemResetWarning,0833.2,4.99,000.00,030.0,025.9,000.0,038.5,030.8,34.9,-001.1,0006.62,0015.68,0005.29
2023-06-29 15:35:00,SystemResetWarning,0833.3,5.02,000.00,030.1,026.3,000.0,038.5,030.9,33.8,-000.4,0006.60,0016.05,0005.30
2023-06-29 15:36:00,SystemResetWarning,0833.2,4.99,000.00,030.1,026.7,000.0,038.5,031.0,32.9,-000.0,0006.60,0016.24,0005.30
2023-06-29 15:37:00,SystemResetWarning,0833.2,5.00,000.00,030.1,027.0,000.0,038.5,031.0,33.0,-000.2,0006.59,0016.18,0005.32
2023-06-29 15:38:00,SystemResetWarning,0833.2,5.00,000.00,030.1,027.3,000.0,038.5,031.1,33.3,-000.8,0006.59,0015.47,0005.36
2023-06-29 15:39:00,SystemResetWarning,0833.2,5.00,000.00,030.1,027.5,000.0,038.5,031.1,33.2,-000.6,0006.66,0015.58,0005.42
2023-06-29 15:40:00,SystemResetWarning,0833.2,5.00,000.00,030.1,027.7,000.0,038.5,031.2,33.4,-000.3,0006.73,0016.22,0005.48
2023-06-29 15:41:00,SystemResetWarning,0833.2,5.01,000.00,030.1,027.9,000.0,038.5,031.2,33.3,0000.1,0006.81,0016.46,0005.53
2023-06-29 15:42:00,SystemResetWarning,0833.2,5.01,000.00,030.1,028.0,000.0,038.5,031.2,33.0,0000.2,0006.89,0016.85,0005.58
2023-06-29 15:43:00,SystemResetWarning,0833.2,5.00,000.00,030.2,028.1,000.0,038.6,031.3,33.2,-000.1,0006.93,0017.57,0005.62
2023-06-29 15:44:00,SystemResetWarning,0833.2,5.00,000.00,030.2,028.2,000.0,038.6,031.3,33.4,-000.5,0006.95,0018.37,0005.65
2023-06-29 15:45:00,SystemResetWarning,0833.1,5.00,000.00,030.2,028.3,000.0,038.6,031.3,33.5,-000.8,0006.94,0017.82,0005.68
2023-06-29 15:46:00,SystemResetWarning,0833.1,5.00,000.00,030.2,028.3,000.0,038.6,031.4,33.8,-000.6,0006.92,0017.65,0005.72
2023-06-29 15:47:00,SystemResetWarning,0833.2,5.00,000.00,030.2,028.4,000.0,038.6,031.4,33.8,-000.4,0006.92,0017.34,0005.73
2023-06-29 15:48:00,SystemResetWarning,0833.1,5.00,000.00,030.2,028.5,000.0,038.6,031.4,33.3,0000.0,0007.00,0017.72,0005.77
2023-06-29 15:49:00,SystemResetWarning,0833.1,5.00,000.00,030.2,028.5,000.0,038.6,031.4,33.6,0000.1,0007.02,0017.39,0005.80
2023-06-29 15:50:00,SystemResetWarning,0833.0,5.00,000.00,030.2,028.5,000.0,038.6,031.5,33.9,0000.5,0007.00,0017.18,0005.79
2023-06-29 15:51:00,SystemResetWarning,0833.0,4.99,000.00,030.2,027.5,000.0,038.6,031.4,33.9,0001.0,0007.04,0017.02,0005.82
2023-06-29 15:52:00,SystemResetWarning,0832.9,5.00,000.00,030.2,025.8,000.0,038.4,031.2,35.4,0000.8,0006.98,0019.02,0005.80
2023-06-29 15:53:00,SystemResetWarning,0832.9,5.03,000.00,030.2,025.3,000.0,038.3,031.1,34.5,-000.1,0006.97,0019.32,0005.78
2023-06-29 15:54:00,SystemResetWarning,0833.0,4.97,000.00,030.2,025.4,000.0,038.4,030.9,33.4,-000.6,0006.98,0018.67,0005.80
2023-06-29 15:55:00,SystemResetWarning,0832.9,5.03,000.00,030.2,025.8,000.0,038.4,030.8,33.4,-000.1,0007.00,0017.55,0005.83
2023-06-29 15:56:00,SystemResetWarning,0833.1,4.97,000.00,030.2,026.2,000.0,038.4,030.9,33.6,-000.5,0007.02,0017.71,0005.84
2023-06-29 15:57:00,SystemResetWarning,0833.2,5.01,000.00,030.2,026.6,000.0,038.4,031.0,33.4,-001.4,0007.02,0017.20,0005.87
2023-06-29 15:58:00,SystemResetWarning,0832.9,5.02,000.00,030.2,027.0,000.0,038.5,031.0,34.0,-001.7,0007.08,0017.41,0005.88
2023-06-29 15:59:00,SystemResetWarning,0832.9,4.99,000.00,030.2,027.2,000.0,038.5,031.1,34.4,-002.3,0007.06,0017.44,0005.87
